Stations météo

réclame
Mon MeteoGroup
Hastveda, Suède (2629): Température de l'air & dewpoint: 15.01.2019 17:00:00 - 21.01.2019 17:00:00 (CET)Hastveda, Suède (2629): Vitesse du vent & gusts: 15.01.2019 17:00:00 - 21.01.2019 17:00:00 (CET)Hastveda, Suède (2629): Direction du vent: 15.01.2019 17:00:00 - 21.01.2019 17:00:00 (CET)Hastveda, Suède (2629): reduced air pressure: 15.01.2019 17:00:00 - 21.01.2019 17:00:00 (CET)Hastveda, Suède (2629): visibility: 15.01.2019 17:00:00 - 21.01.2019 17:00:00 (CET)Hastveda, Suède (2629): Quantités de précipitations: 15.01.2019 17:00:00 - 21.01.2019 17:00:00 (CET)
Date & Time tt [°C] td [°C] ff [km/h] ff [knt] fx [km/h] fx [knt] dd ppp [hPa] vv [km] rr [mm]
21.01.2019 17:00:00 - - - - - - - - - -
21.01.2019 16:00:00 -0,6 -0,7 4 2 11 6 SE 1013,2 1,1 0,0
21.01.2019 15:00:00 -0,6 -0,7 4 2 14 8 S 1013,4 1,9 0,0
21.01.2019 14:00:00 -0,8 -0,9 7 4 18 10 SSW 1013,8 4,3 0,1
21.01.2019 13:00:00 -0,7 -0,8 11 6 22 12 SSW 1014,1 2,3 0,0
21.01.2019 12:00:00 -0,7 -0,8 11 6 22 12 SSW 1014,6 2,1 0,2
21.01.2019 11:00:00 -0,7 -0,7 11 6 25 14 S 1015,3 1,1 0,4
21.01.2019 10:00:00 -0,5 -0,5 11 6 25 14 SW 1015,8 3,4 0,1
21.01.2019 09:00:00 -0,3 -0,3 7 4 18 10 SSW 1016,2 1,9 0,0
21.01.2019 08:00:00 -0,3 -0,3 7 4 18 10 S 1016,3 1,8 0,0
21.01.2019 07:00:00 -0,1 -0,1 11 6 18 10 SW 1016,8 1,6 0,0
21.01.2019 06:00:00 0,0 0,0 7 4 18 10 WSW 1017,1 1,1 0,0
21.01.2019 05:00:00 0,1 0,1 11 6 14 8 WSW 1017,6 1,0 0,0
21.01.2019 04:00:00 0,3 0,3 11 6 18 10 WSW 1017,9 0,8 0,0
21.01.2019 03:00:00 0,1 0,1 11 6 14 8 WSW 1018,6 0,6 0,0
21.01.2019 02:00:00 0,0 0,0 7 4 14 8 WSW 1018,9 0,4 0,2
21.01.2019 01:00:00 0,1 0,1 7 4 11 6 SW 1019,1 0,2 0,0
21.01.2019 00:00:00 0,0 0,0 4 2 7 4 SW 1019,4 0,2 0,0
20.01.2019 23:00:00 0,1 0,1 4 2 7 4 WSW 1019,4 0,2 0,0
20.01.2019 22:00:00 -0,1 -0,2 4 2 7 4 SW 1019,3 0,4 0,0
20.01.2019 21:00:00 -0,2 -0,3 0 0 7 4 N 1019,1 0,4 0,0
20.01.2019 20:00:00 -0,3 -0,4 0 0 7 4 N 1019,0 0,9 0,0
20.01.2019 19:00:00 -0,4 -0,5 0 0 4 2 N 1018,9 2,6 0,0
20.01.2019 18:00:00 -0,4 -0,5 0 0 4 2 N 1018,7 1,4 0,1
20.01.2019 17:00:00 -0,3 -0,6 0 0 4 2 N 1018,5 1,9 0,1
20.01.2019 16:00:00 -0,2 -0,5 0 0 7 4 N 1018,4 7 0,0
20.01.2019 15:00:00 -0,2 -0,6 4 2 7 4 W 1018,2 17 0,0
20.01.2019 14:00:00 -0,2 -0,6 0 0 7 4 N 1018,1 45 0,0
20.01.2019 13:00:00 -0,5 -0,8 4 2 14 8 E 1018,2 30 0,1
20.01.2019 12:00:00 0,1 0,0 4 2 11 6 NNE 1017,9 2,0 0,0
20.01.2019 11:00:00 0,0 -0,4 7 4 18 10 W 1017,6 3,2 0,0
20.01.2019 10:00:00 -0,5 -0,6 11 6 18 10 W 1017,2 3,1 0,1
20.01.2019 09:00:00 -0,7 -1,3 7 4 18 10 W 1016,8 4,9 0,0
20.01.2019 08:00:00 -0,6 -1,2 11 6 18 10 W 1016,3 5 0,0
20.01.2019 07:00:00 -0,6 -1,2 7 4 22 12 W 1015,9 5 0,0
20.01.2019 06:00:00 -0,7 -1,3 11 6 18 10 W 1016,1 6 0,0
20.01.2019 05:00:00 -0,7 -1,4 11 6 25 14 W 1016,3 7 0,0
20.01.2019 04:00:00 -0,7 -1,8 14 8 25 14 W 1016,5 10 0,0
20.01.2019 03:00:00 -0,5 -1,6 14 8 25 14 W 1016,7 10 0,0
20.01.2019 02:00:00 -0,3 -1,1 11 6 25 14 W 1016,6 10 0,0
20.01.2019 01:00:00 0,0 -0,8 11 6 25 14 W 1016,5 11 0,0
20.01.2019 00:00:00 0,4 -0,5 14 8 25 14 W 1016,6 12 0,0
19.01.2019 23:00:00 0,7 0,1 11 6 22 12 W 1016,6 11 0,0
19.01.2019 22:00:00 0,6 0,3 11 6 22 12 W 1016,5 8 0,0
19.01.2019 21:00:00 0,6 0,2 11 6 22 12 W 1016,4 8 0,0
19.01.2019 20:00:00 0,7 0,1 11 6 25 14 W 1016,5 16 0,0
19.01.2019 19:00:00 0,7 0,0 14 8 25 14 W 1016,1 19 0,0
19.01.2019 18:00:00 0,7 0,1 11 6 22 12 W 1016,4 26 0,0
19.01.2019 17:00:00 0,7 0,3 11 6 22 12 W 1016,3 26 0,0
19.01.2019 16:00:00 0,8 0,2 11 6 14 8 W 1016,3 30 0,0
19.01.2019 15:00:00 1,2 0,5 11 6 22 12 W 1016,5 40 0,0
19.01.2019 14:00:00 1,3 0,8 11 6 22 12 W 1016,7 30 0,0
19.01.2019 13:00:00 1,4 1,1 11 6 22 12 W 1016,8 30 0,0
19.01.2019 12:00:00 0,4 0,3 11 6 14 8 WSW 1016,9 12 0,0
19.01.2019 11:00:00 -0,6 -0,7 11 6 14 8 W 1017,0 5 0,0
19.01.2019 10:00:00 -1,4 -1,5 11 6 14 8 WSW 1016,8 3,5 0,0
19.01.2019 09:00:00 -2,0 -2,1 7 4 11 6 W 1016,6 10 0,0
19.01.2019 08:00:00 -2,9 -3,0 7 4 14 8 WSW 1016,2 15 0,0
19.01.2019 07:00:00 -4,0 -4,1 11 6 14 8 W 1015,9 23 0,0
19.01.2019 06:00:00 -4,3 -4,6 7 4 14 8 W 1016,0 20 0,0
19.01.2019 05:00:00 -4,2 -4,5 7 4 14 8 WSW 1015,9 21 0,0
19.01.2019 04:00:00 -4,0 -4,1 11 6 14 8 WSW 1015,9 30 0,0
19.01.2019 03:00:00 -4,1 -4,2 7 4 11 6 W 1015,8 28 0,0
19.01.2019 02:00:00 -4,0 -4,1 7 4 11 6 W 1015,6 20 0,0
19.01.2019 01:00:00 -3,8 -3,9 11 6 11 6 W 1015,5 16 0,0
19.01.2019 00:00:00 -3,4 -3,7 11 6 11 6 W 1015,0 26 0,0
18.01.2019 23:00:00 -3,1 -3,4 7 4 14 8 WSW 1014,7 30 0,0
18.01.2019 22:00:00 -2,4 -2,8 11 6 14 8 W 1014,3 45 0,0
18.01.2019 21:00:00 -2,2 -2,6 11 6 14 8 W 1013,9 45 0,3
18.01.2019 20:00:00 -2,3 -3,1 11 6 18 10 W 1013,5 45 0,0
18.01.2019 19:00:00 -2,6 -3,1 11 6 14 8 W 1013,3 45 0,0
18.01.2019 18:00:00 -2,3 -3,1 11 6 14 8 WSW 1013,1 45 0,0
18.01.2019 17:00:00 -1,6 -3,3 11 6 14 8 WSW 1012,9 50 0,0
18.01.2019 16:00:00 -0,7 -3,2 11 6 14 8 W 1012,7 50 0,0
18.01.2019 15:00:00 0,3 -3,3 11 6 18 10 W 1012,3 45 0,0
18.01.2019 14:00:00 0,3 -4,5 11 6 14 8 W 1011,9 50 0,0
18.01.2019 13:00:00 -0,7 -5,1 7 4 18 10 WNW 1011,9 45 0,0
18.01.2019 12:00:00 -1,3 -6,1 7 4 18 10 WNW 1011,5 50 0,0
18.01.2019 11:00:00 -2,7 -6,5 7 4 11 6 W 1011,3 50 0,0
18.01.2019 10:00:00 -4,9 -6,4 4 2 14 8 W 1010,9 50 0,0
18.01.2019 09:00:00 -6,0 -7,1 11 6 14 8 W 1010,0 50 0,0
18.01.2019 08:00:00 -6,1 -7,2 7 4 14 8 WNW 1009,1 50 0,0
18.01.2019 07:00:00 -6,2 -6,9 7 4 14 8 W 1008,4 50 0,0
18.01.2019 06:00:00 -5,6 -6,7 7 4 22 12 WNW 1007,6 50 0,0
18.01.2019 05:00:00 -5,0 -6,8 11 6 22 12 NW 1007,1 50 0,0
18.01.2019 04:00:00 -5,4 -6,4 7 4 22 12 WNW 1006,4 50 0,0
18.01.2019 03:00:00 -5,1 -6,1 11 6 22 12 NW 1005,7 50 0,0
18.01.2019 02:00:00 -4,6 -5,8 11 6 22 12 NW 1004,8 50 0,0
18.01.2019 01:00:00 -4,1 -5,5 11 6 22 12 NNW 1003,8 50 0,0
18.01.2019 00:00:00 -3,5 -4,9 11 6 25 14 N 1002,7 50 0,0
17.01.2019 23:00:00 -3,0 -4,3 11 6 29 16 N 1001,7 50 0,0
17.01.2019 22:00:00 -2,8 -4,2 14 8 25 14 NNW 1000,1 50 0,0
17.01.2019 21:00:00 -2,4 -4,0 11 6 22 12 N 999,0 50 0,0
17.01.2019 20:00:00 -2,3 -4,0 11 6 18 10 NNE 997,5 50 0,0
17.01.2019 19:00:00 -2,2 -3,5 11 6 25 14 N 995,7 50 0,0
17.01.2019 18:00:00 -2,0 -3,3 7 4 22 12 NNE 994,3 45 0,0
17.01.2019 17:00:00 -1,5 -2,5 11 6 22 12 N 993,3 50 0,0
17.01.2019 16:00:00 -0,6 -0,9 11 6 22 12 NNE 991,7 45 0,0
17.01.2019 15:00:00 0,8 0,7 7 4 18 10 N 991,1 35 0,0
17.01.2019 14:00:00 1,4 1,0 7 4 14 8 WNW 990,7 28 0,0
17.01.2019 13:00:00 1,2 0,3 7 4 22 12 W 990,4 45 0,0
17.01.2019 12:00:00 1,5 0,2 11 6 40 21 W 990,2 45 0,0
17.01.2019 11:00:00 2,6 1,9 22 12 40 21 W 989,5 35 0,0
17.01.2019 10:00:00 2,7 2,3 11 6 25 14 W 988,9 27 0,0
17.01.2019 09:00:00 2,5 2,2 11 6 32 18 W 988,4 28 0,9
17.01.2019 08:00:00 2,7 2,3 14 8 25 14 W 987,5 8 0,7
17.01.2019 07:00:00 2,8 2,5 18 10 36 19 W 987,0 25 0,2
17.01.2019 06:00:00 3,1 2,7 18 10 36 19 W 987,0 10 0,6
17.01.2019 05:00:00 3,2 2,8 14 8 29 16 W 987,1 9 0,2
17.01.2019 04:00:00 3,3 3,0 14 8 29 16 WSW 987,3 45 0,1
17.01.2019 03:00:00 3,3 3,0 14 8 43 23 WSW 987,6 35 0,4
17.01.2019 02:00:00 4,4 4,1 22 12 43 23 W 987,8 6 0,9
17.01.2019 01:00:00 4,7 4,4 22 12 43 23 WSW 987,8 7 0,3
17.01.2019 00:00:00 5,1 4,7 25 14 43 23 WSW 988,5 17 0,0
16.01.2019 23:00:00 5,4 4,9 25 14 40 21 WSW 989,3 13 0,1
16.01.2019 22:00:00 5,6 5,2 22 12 43 23 WSW 989,9 11 0,1
16.01.2019 21:00:00 5,7 5,3 18 10 36 19 WSW 990,6 12 0,2
16.01.2019 20:00:00 5,8 5,2 18 10 40 21 WSW 991,1 14 0,0
16.01.2019 19:00:00 5,9 5,2 18 10 36 19 WSW 991,9 25 0,0
16.01.2019 18:00:00 5,7 5,1 18 10 36 19 WSW 992,7 22 0,0
16.01.2019 17:00:00 5,4 5,0 18 10 32 18 WSW 993,4 11 0,1
16.01.2019 16:00:00 5,5 5,1 18 10 32 18 WSW 994,1 9 0,0
16.01.2019 15:00:00 5,5 5,2 14 8 25 14 WSW 994,8 8 0,0
16.01.2019 14:00:00 5,5 5,2 14 8 25 14 WSW 995,6 5 0,4
16.01.2019 13:00:00 5,6 5,3 14 8 29 16 WSW 996,0 9 0,2
16.01.2019 12:00:00 5,4 5,3 11 6 22 12 W 996,8 11 0,0
16.01.2019 11:00:00 4,0 3,9 7 4 18 10 SW 997,6 4,1 0,1
16.01.2019 10:00:00 3,0 2,9 7 4 14 8 SSW 998,3 5 0,3
16.01.2019 09:00:00 3,0 2,9 7 4 14 8 SSW 998,7 5 0,1
16.01.2019 08:00:00 3,1 3,0 7 4 14 8 SW 999,0 13 0,0
16.01.2019 07:00:00 3,2 3,1 7 4 14 8 WSW 999,2 9 0,1
16.01.2019 06:00:00 3,5 3,2 7 4 14 8 WSW 999,5 6 0,2
16.01.2019 05:00:00 3,6 3,2 7 4 11 6 WSW 999,8 9 0,0
16.01.2019 04:00:00 3,4 3,1 7 4 14 8 WNW 1000,0 8 0,0
16.01.2019 03:00:00 2,8 2,4 11 6 22 12 W 999,8 8 0,0
16.01.2019 02:00:00 3,0 2,6 11 6 22 12 WNW 999,4 9 0,0
16.01.2019 01:00:00 3,2 2,3 14 8 32 18 WNW 999,0 10 0,0
16.01.2019 00:00:00 3,6 2,6 18 10 40 21 NW 998,6 11 0,0
15.01.2019 23:00:00 3,9 2,9 18 10 40 21 WNW 998,1 10 0,0
15.01.2019 22:00:00 4,0 3,0 22 12 47 25 NW 997,6 10 0,0
15.01.2019 21:00:00 3,9 3,0 22 12 40 21 WNW 997,1 10 0,0
15.01.2019 20:00:00 3,8 3,1 22 12 43 23 NW 996,3 9 0,0
15.01.2019 19:00:00 4,0 3,3 25 14 50 27 WNW 995,4 9 0,0
15.01.2019 18:00:00 4,0 3,6 25 14 50 27 WNW 994,3 9 0,0
15.01.2019 17:00:00 1,7 1,7 22 12 32 18 WNW 994,1 13 0,1

tt = Température de l'air
td = dewpoint
ff = Vitesse du vent
fx = gusts
dd = Direction du vent
ppp = reduced air pressure
vv = visibility
rr = Quantités de précipitations

stations d'obs. à proximité